www.pogodaiklimat.ru

Погода и климат >> Архив погоды >> Россия >> Архангельская область >> Остров Хейса


АРХИВ ПОГОДЫ на Острове Хейса

Время (UTC), дата Ветер
(напр.,м/с)
 
Видим.   Явления Облачность Т
(С)
Тd
(С)
f
(%)
Тe
(С)
Тes
(С)
Комфортность P
(гПа)
Po
(гПа)
Тmin
(С)
Tmax
(С)
R
(мм)
R24
(мм)
S
(см)
03 20.05 СВ 3 4000 м слаб. снег 10/9 330 м
[Sc As op]
-2.9 -3.7 94 -8 -8 по сезону 1023.6 1020.7 4 61
06 20.05 СВ 2 4000 м слаб. снег 10/9 330 м
[Sc As op]
-2.5 -3.5 93 -7 -7 тепло 1023.6 1020.7
09 20.05 В 5 4000 м слаб. снег 10/4 300 м
[Sc As op]
-2.3 -3.0 95 -9 -9 по сезону 1023.5 1020.6
12 20.05 ЮВ 2 4000 м слаб. снег 10/9 300 м
[Sc As op]
-2.5 -3.3 94 -7 -7 по сезону 1023.5 1020.6
15 20.05 СВ 6 4000 м слаб. снег 10/9 330 м
[Sc As op]
-3.1 -3.6 96 -11 -11 по сезону 1022.9 1020.0 4
18 20.05 СВ 7 20 км {снег} 9/4 300 м
[Sc Ac und]
-4.9 -5.5 96 -13 -13 по сезону 1022.3 1019.4 -2.2
21 20.05 СВ 7
{10}
20 км 9/5 300 м
[Sc Ac trans]
-5.3 -6.1 94 -14 -14 по сезону 1022.0 1019.1
00 21.05 СВ 2 4000 м слаб. снег 10/0
[As op]
-5.6 -6.7 92 -10 -10 по сезону 1021.7 1018.8 -5.9
03 21.05 СВ 3 2000 м снег 10/0
[As op]
-4.2 -5.3 92 -10 -9 по сезону 1021.1 1018.2 7 61
06 21.05 СВ 7
{12}
20 км {снег} 9/3 300 м
[Sc Ac und]
-4.9 -6.9 86 -13 -13 по сезону 1020.6 1017.7 -6.0
09 21.05 СВ 9
{13}
20 км 8/3 300 м
[Cb calv Ac und Ci fib]
-5.5 -7.6 85 -15 -15 по сезону 1020.3 1017.4
12 21.05 С 7
{13}
20 км 8/3 300 м
[Cb calv Ac und Ci fib]
-5.1 -7.4 84 -13 -13 по сезону 1020.0 1017.1
15 21.05 С 4 20 км 4/3 300 м
[Sc Ac trans Ci fib]
-4.9 -8.0 79 -11 -10 по сезону 1019.3 1016.3 0.8
18 21.05 ЮЗ 3 20 км 8/0
[Ac lent Ci fib]
-6.3 -8.6 84 -12 -11 по сезону 1018.2 1015.3 -4.2
21 21.05 С 6 20 км 9/8 300 м
[Sc Ac trans]
-5.5 -7.6 85 -13 -13 по сезону 1017.4 1014.5
00 22.05 СВ 4
{12}
20 км 9/8 720 м
[Sc Ac trans]
-6.2 -8.3 85 -13 -13 по сезону 1017.4 1014.4 -6.3
03 22.05 СВ 10
{13}
20 км позёмок 9/8 360 м
[Cu Sc Ac trans]
-5.9 -7.7 87 -16 -16 по сезону 1016.4 1013.5 61
06 22.05 СВ 9
{13}
20 км позёмок 9/5 300 м
[Cu hum Ac trans]
-7.7 -9.5 87 -18 -17 прохладно 1017.0 1014.0 -7.8
09 22.05 СВ 9
{11}
20 км позёмок 10/1 300 м
[Cu hum Ac trans Ci fib]
-8.6 -10.6 85 -19 -18 холодно 1017.0 1014.0
12 22.05 СВ 8 20 км позёмок 10/3 300 м
[Cu hum Ac lent Cc]
-9.4 -11.3 86 -19 -19 холодно 1017.2 1014.3
15 22.05 СВ 5 20 км {метель} 10/6 300 м
[Cu Sc Ac lent Ci fib]
-9.3 -10.9 88 -17 -17 прохладно 1017.0 1014.0
18 22.05 СВ 5 20 км 9/8 300 м
[Sc Ac trans]
-9.1 -11.1 85 -17 -17 прохладно 1016.2 1013.2
21 22.05 З 1 2000 м слаб. ливневой снег 9/8 330 м
[Cb cap Ac trans]
-9.6 -10.8 91 -12 -12 по сезону 1015.0 1012.0
00 23.05 С 4 2000 м слаб. ливневой снег 10/6 400 м
[Cb cap Ac trans Cs]
-8.0 -11.0 79 -15 -15 по сезону 1013.4 1010.5
03 23.05 ЮЗ 3 20 км в посл. час ливневой снег 10/3 300 м
[Cb cap Cs]
-9.6 -11.6 85 -16 -14 прохладно 1011.5 1008.6 1 61
06 23.05 ЮЗ 5 20 км {ливн. осадки} 10/0
[Cs]
-7.3 -8.8 89 -15 -13 по сезону 1009.8 1006.9 -9.8
09 23.05 ЮЗ 6 4000 м слаб. снег 10/0
[As op]
-6.6 -8.2 88 -15 -14 по сезону 1008.5 1005.6
12 23.05 Ю 3 4000 м слаб. снег 10/0
[As op]
-6.3 -8.2 86 -12 -11 по сезону 1008.6 1005.6
15 23.05 ЮВ 7 4000 м слаб. снег 10/0
[As op]
-7.1 -8.4 90 -16 -16 прохладно 1008.7 1005.8 1
18 23.05 ЮВ 10
{14}
4000 м слаб. снег {метель} 10/0
[As op]
-8.9 -10.3 90 -19 -19 холодно 1010.1 1007.2 -5.9
21 23.05 ЮВ 9
{12}
4000 м слаб. снег {метель} 10/0
[As op]
-9.5 -11.4 86 -20 -20 холодно 1011.5 1008.5
00 24.05 В 8
{12}
20 км {снег, метель} 9/0
[Ac und]
-7.8 -9.8 86 -17 -17 прохладно 1012.8 1009.9
03 24.05 В 9
{12}
4000 м слаб. снег {метель} 10/9 500 м
[Sc As op]
-7.9 -10.6 81 -18 -18 прохладно 1013.8 1010.9 0.9 61
06 24.05 В 7
{12}
4000 м слаб. снег {метель} 10/9 500 м
[Sc As op]
-7.3 -10.7 77 -16 -16 прохладно 1014.6 1011.7
09 24.05 В 8 2000 м слаб. ливневой снег 9/8 300 м
[Cb cap Ac und]
-6.9 -10.3 77 -16 -16 прохладно 1015.4 1012.5
12 24.05 В 7
{11}
2000 м слаб. ливневой снег {метель} 9/8 300 м
[Cb cap Ac und]
-7.2 -10.7 76 -16 -16 прохладно 1015.9 1013.0
15 24.05 СВ 9 2000 м слаб. ливневой снег {метель} 9/8 300 м
[Cb cap Ac und]
-8.5 -10.1 88 -19 -19 холодно 1015.9 1013.0 0.6
18 24.05 В 8
{10}
20 км {ливн. осадки, метель} 10/4 300 м
[Cb cap Ac trans Ci fib]
-8.9 -10.5 88 -18 -18 холодно 1015.6 1012.7
21 24.05 В 7 20 км 9/0
[Ac und]
-8.4 -10.3 86 -17 -17 прохладно 1015.7 1012.7
00 25.05 В 7 20 км 8/3 300 м
[Sc Ac trans]
-8.5 -9.6 92 -18 -17 прохладно 1015.2 1012.2 -9.7
03 25.05 СВ 5 20 км 8/0
[Ac trans]
-7.1 -9.0 86 -15 -14 по сезону 1014.9 1011.9 0.0 61
06 25.05 СВ 9 20 км 9/9 330 м
[Sc]
-4.8 -5.9 92 -14 -14 по сезону 1014.2 1011.3
09 25.05 В 6
{11}
20 км 9/9 660 м
[Sc]
-2.6 -4.3 88 -10 -10 по сезону 1014.2 1011.3
12 25.05 В 6
{11}
20 км 9/9 700 м
[Sc]
-1.6 -3.3 88 -9 -8 по сезону 1015.1 1012.2
15 25.05 В 8
{13}
20 км 9/9 630 м
[Sc]
-1.5 -2.7 92 -10 -10 по сезону 1015.4 1012.6
18 25.05 ЮВ 9-13
{13}
20 км 9/9 540 м
[Sc]
-2.4 -4.1 88 -11 -11 по сезону 1015.9 1013.0
21 25.05 ЮВ 9
{12}
20 км 9/9 800 м
[Sc]
-2.5 -4.2 88 -11 -11 по сезону 1015.8 1013.0
00 26.05 В 7 20 км 9/9 400 м
[Sc]
-3.7 -4.6 93 -12 -12 по сезону 1016.8 1013.9
03 26.05 В 7 20 км 6/3 300 м
[Sc Ac lent Ci fib]
-3.8 -5.8 86 -12 -11 по сезону 1017.1 1014.2 60
06 26.05 СВ 9-11
{12}
20 км 9/0
[Ac trans Ci fib]
-3.6 -5.9 84 -12 -12 по сезону 1017.1 1014.2
09 26.05 В 11
{12}
20 км 8/0
[Ac lent Ci fib]
-3.1 -6.2 79 -12 -12 по сезону 1017.1 1014.2
12 26.05 В 10
{14}
20 км 9/0
[Ac lent Ci fib]
-3.5 -5.9 83 -13 -13 по сезону 1017.5 1014.6
15 26.05 СВ 9
{14}
20 км 8/0
[Ac lent Ci fib]
-4.0 -5.7 88 -13 -13 по сезону 1017.6 1014.7
18 26.05 СВ 7
{14}
20 км 8/3 300 м
[Sc Ac lent Ci fib]
-3.8 -5.4 89 -12 -12 по сезону 1017.2 1014.3 -2.8
21 26.05 СВ 13
{14}
20 км 9/0
[Ac lent Ci fib]
-4.2 -5.9 88 -15 -15 прохладно 1015.8 1012.9
00 27.05 СВ 9
{14}
20 км 10/0
[Ac trans Ci fib]
-5.2 -6.6 90 -15 -14 по сезону 1015.6 1012.7

 

Местоположение метеостанции Остров Хейса (Архангельская область, Россия): широта 80.62 долгота 58.05 высота над уровнем моря 25 м.

В архиве по умолчанию представлена погода на Острове Хейса за последнюю неделю. Архивные данные за месяц целиком и за предыдущие месяцы, начиная с января 2011 года, Вы можете получить, выбрав интересующий диапазон дат из раскрывающегося списка и нажав кнопку "Ввод!".


*Определитесь, кто Вы:
робот инопланетянин человек

Внимание! Время в таблицах - всемирное. Для получения местного времени необходимо прибавить поправку, которая равна 3 ч.

Смотрите также архив погоды в соседних городах и на ближайших метеорологических станциях:

Погода на Острове Визе (Красноярский край, Россия) (382 км)
Погода на Мысе Желания (Архангельская область, Россия) (466 км)
Погода на Острове Белый (Норвегия) (495 км)
Погода на Острове Карла XII (Норвегия) (590 км)
Погода на Конгсёйа (Норвегия) (598 км)
Погода на Острове Уединения (Красноярский край, Россия) (610 км)
Погода на Острове Голомянном (Красноярский край, Россия) (626 км)
Погода на Эдже (Норвегия) (751 км)
Погода на Островах Известий ЦИК (Красноярский край, Россия) (754 км)
Погода на Верлегенхукен (Норвегия) (766 км)

Пояснения к столбцам:

Ветер - указаны скорость ветра в м/с - средняя за 10 мин, порывы в срок и между сроками (в фигурных скобках) и направление, откуда дует ветер: С - северный, СВ - северо-восточный, В - восточный, ЮВ - юго-восточный, Ю - южный, ЮЗ - юго-западный, З - западный, СЗ - северо-западный.
Видимость - горизонтальная дальность видимости в метрах или километрах. При видимости от 1 до 10 км при отсутствии осадков обычно наблюдается дымка, при ухудшении видимости до 1 км и менее - туман. В сухую погоду видимость может ухудшаться дымом, пылью или мглою.
Явления - указаны атмосферные явления, наблюдавшиеся в срок или в последний час перед сроком; фигурными скобками обозначены явления, наблюдавшиеся между сроками (за 1-3 часа до срока); квадратными скобками обозначены град или гололедные отложения с указанием их диаметра в мм.
Облачность - указаны через наклонную черту общая и нижняя облачность в баллах и высота нижней границы облаков в метрах; квадратными скобками обозначены формы облаков: Ci - перистые, Cs - перисто-слоистые, Cc - перисто-кучевые, Ac - высококучевые, As - высокослоистые, Sc - слоисто-кучевые, Ns - слоисто-дождевые, Cu - кучевые, Cb - кучево-дождевые. Подробнее классификацию облаков см. в Атласе облаков (PDF).
T - Температура воздуха - температура, измеренная на высоте 2 м над землей.
Td - Температура точки росы - температура, при понижении до которой содержащийся в воздухе водяной пар достигнет насыщения.
f - Относительная влажность воздуха - влажноcть воздуха, измеренная на высоте 2 м над землей.
Te - Эффективная температура - температура, которую ощущает одетый по сезону человек в тени. Характеристика душности погоды. При расчете учитывается влияние влажности воздуха и скорости ветра на теплоощущения человека.
Tes - Эффективная температура на солнце - температура, которую ощущает человек, с поправкой на солнечный нагрев. Характеристика знойности погоды. Зависит от высоты солнца над горизонтом, облачности и скорости ветра. Ночью, в пасмурную погоду, а также при ветре 12 м/с и более поправка равна нулю.
P - Атмосферное давление - приведенное к уровню моря атмосферное давление.
Po - Атмосферное давление - измеренное на уровне метеостанции атмосферное давление.
Tmin - Минимальная температура - минимум температуры воздуха на высоте 2 м над землей.
Tmax - Максимальная температура - максимум температуры воздуха на высоте 2 м над землей.
R - Количество осадков - Количество выпавших осадков за период времени, мм. При наведении курсора мыши на число - период времени, за который выпало указанное количество осадков.
R24 - Количество осадков - Количество выпавших осадков за 24 часа, мм.
S - Снежный покров - Высота снежного покрова, см. При наведении курсора мыши на число - состояние снежного покрова и степень покрытия местности в баллах.